logo tempoitalia

Diretta Meteo Silver City-Grant, Stati Uniti (USA)lunedì 31 agosto ore 00:35

Mappa
Sereno 22 °C Sereno 24 Ore: T.min 19 T.max 34
Ponente Nord-Ovest Km/h 7.4 Punto di rugiada: 8 °C Umidità: 40% Visibilità: 10 Km
Il sole sorge alle: 06:46 Il sole tramonta alle: 19:38
31 Agosto 2026 00:35 tempo osservato: Sereno Sereno 22 40 1020 vento: Nord NO 7.4
31 Agosto 2026 00:15 tempo osservato: Sereno Sereno 23 38 1020 vento: Nord N 13
30 Agosto 2026 23:55 tempo osservato: Nuvoloso Nuvoloso 23 35 1020 vento: Nord N 16.7
30 Agosto 2026 23:35 tempo osservato: Sereno Sereno 24 33 1020 vento: Nord N/NO 16.7
30 Agosto 2026 23:15 tempo osservato: Sereno Sereno 23 35 1021 vento: Nord N 16.7
30 Agosto 2026 22:55 tempo osservato: Sereno Sereno 24 33 1021 vento: Nord N/NO 16.7
30 Agosto 2026 22:35 tempo osservato: Sereno Sereno 23 35 1021 vento: Nord NO 11.1
30 Agosto 2026 22:15 tempo osservato: Sereno Sereno 24 31 1021 vento: Nord N/NO 14.8
30 Agosto 2026 21:55 tempo osservato: Sereno Sereno 25 31 1021 vento: Nord O/NO 11.1
30 Agosto 2026 21:35 tempo osservato: Sereno Sereno 25 31 1020 vento: Nord NO 13
30 Agosto 2026 21:15 tempo osservato: Sereno Sereno 25 31 1020 vento: Nord N/NO 18.5
30 Agosto 2026 20:55 tempo osservato: Sereno Sereno 26 29 1020 vento: Nord N 18.5
30 Agosto 2026 20:35 tempo osservato: Sereno Sereno 26 31 1019 vento: Nord N/NO 20.3
30 Agosto 2026 20:15 tempo osservato: Sereno Sereno 27 30 1019 vento: Nord N/NO 20.3
30 Agosto 2026 19:55 tempo osservato: Sereno Sereno 27 30 1019 vento: Nord N 24
30 Agosto 2026 19:35 tempo osservato: Sereno Sereno 27 32 1019 vento: Nord N 16.7
30 Agosto 2026 19:15 tempo osservato: Sereno Sereno 27 34 1019 vento: Nord NE 27.8
30 Agosto 2026 18:55 tempo osservato: Nuvoloso Nuvoloso 27 34 1019 vento: Nord NE 29.6
30 Agosto 2026 18:35 tempo osservato: Pioggia Pioggia 26 39 1019 vento: Nord NE 31.5
30 Agosto 2026 18:15 tempo osservato: Coperto Coperto 30 25 1020 vento: Nord E/NE 25.9
30 Agosto 2026 17:55 tempo osservato: Nuvoloso Nuvoloso 33 17 1019 vento: Nord O 14.8
30 Agosto 2026 17:35 tempo osservato: Sereno Sereno 32 17 1019 vento: Nord O/SO 18.5
30 Agosto 2026 17:15 tempo osservato: Sereno Sereno 31 20 1019 vento: Nord O/SO 24
30 Agosto 2026 16:55 tempo osservato: Sereno Sereno 32 21 1019 vento: Nord O/SO 22.2
30 Agosto 2026 16:35 tempo osservato: Nuvoloso Nuvoloso 32 21 1019 vento: Nord O/NO 16.7
30 Agosto 2026 16:15 tempo osservato: Sereno Sereno 32 19 1019 vento: Nord O 14.8
30 Agosto 2026 15:55 tempo osservato: Sereno Sereno 33 18 1019 vento: Nord N/NO 14.8
30 Agosto 2026 15:35 tempo osservato: Nuvoloso Nuvoloso 34 17 1020 vento: Nord SO 22.2
30 Agosto 2026 15:15 tempo osservato: Sereno Sereno 34 18 1020 vento: Nord O/NO 16.7
30 Agosto 2026 14:55 tempo osservato: Sereno Sereno 33 18 1020 vento: Nord O 14.8
30 Agosto 2026 14:35 tempo osservato: Sereno Sereno 33 19 1021 vento: Nord N/NO 9.3
30 Agosto 2026 14:15 tempo osservato: Sereno Sereno 32 19 1021 vento: Nord O 9.3
30 Agosto 2026 13:55 tempo osservato: Sereno Sereno 32 19 1022 vento: Nord O 14.8
30 Agosto 2026 13:35 tempo osservato: Sereno Sereno 32 19 1022 vento: Nord N 5.5
30 Agosto 2026 13:15 tempo osservato: Sereno Sereno 32 19 1022 vento: Nord NO 18.5
30 Agosto 2026 12:55 tempo osservato: Sereno Sereno 32 21 1022 vento: Nord O/NO 20.3
30 Agosto 2026 12:35 tempo osservato: Sereno Sereno 31 20 1023 vento: Nord O 20.3
30 Agosto 2026 12:15 tempo osservato: Sereno Sereno 32 18 1023 vento: Nord O/NO 16.7
30 Agosto 2026 11:55 tempo osservato: Sereno Sereno 31 22 1023 vento: Nord O/NO 27.8
30 Agosto 2026 11:35 tempo osservato: Sereno Sereno 31 23 1023 vento: Nord O 22.2
30 Agosto 2026 11:15 tempo osservato: Sereno Sereno 31 23 1023 vento: Nord O/NO 27.8
30 Agosto 2026 10:55 tempo osservato: Sereno Sereno 31 23 1023 vento: Nord O/NO 24
30 Agosto 2026 10:35 tempo osservato: Sereno Sereno 30 25 1023 vento: Nord O/NO 18.5
30 Agosto 2026 10:15 tempo osservato: Sereno Sereno 30 25 1023 vento: Nord O 24
30 Agosto 2026 09:55 tempo osservato: Sereno Sereno 29 26 1023 vento: Nord N/NO 13
30 Agosto 2026 09:35 tempo osservato: Sereno Sereno 28 28 1023 vento: Nord N 9.3
30 Agosto 2026 09:15 tempo osservato: Sereno Sereno 27 32 1023 vento: Nord NO 14.8
30 Agosto 2026 08:55 tempo osservato: Sereno Sereno 25 41 1023 vento: Nord NO 13
30 Agosto 2026 08:35 tempo osservato: Sereno Sereno 25 41 1023 vento: Nord O/NO 16.7
30 Agosto 2026 08:15 tempo osservato: Sereno Sereno 23 49 1023 vento: Nord NO 22.2
30 Agosto 2026 07:55 tempo osservato: Sereno Sereno 22 53 1023 vento: Nord O/NO 22.2
30 Agosto 2026 07:35 tempo osservato: Sereno Sereno 21 56 1023 vento: Nord O/NO 24
30 Agosto 2026 07:15 tempo osservato: Sereno Sereno 20 64 1023 vento: Nord NO 18.5
30 Agosto 2026 06:55 tempo osservato: Sereno Sereno 19 63 1023 vento: Nord O/NO 22.2
30 Agosto 2026 06:35 tempo osservato: Sereno Sereno 20 59 1022 vento: Nord NO 24
30 Agosto 2026 06:15 tempo osservato: Sereno Sereno 20 59 1022 vento: Nord NO 22.2
30 Agosto 2026 05:55 tempo osservato: Sereno Sereno 20 56 1022 vento: Nord O/NO 20.3
30 Agosto 2026 05:35 tempo osservato: Sereno Sereno 21 49 1022 vento: Nord O/NO 18.5
30 Agosto 2026 05:15 tempo osservato: Sereno Sereno 21 52 1022 vento: Nord O/NO 16.7
30 Agosto 2026 04:55 tempo osservato: Sereno Sereno 21 52 1022 vento: Nord NO 18.5
30 Agosto 2026 04:35 tempo osservato: Sereno Sereno 22 49 1022 vento: Nord NO 20.3
30 Agosto 2026 04:15 tempo osservato: Sereno Sereno 22 49 1022 vento: Nord NO 24
30 Agosto 2026 03:55 tempo osservato: Sereno Sereno 22 49 1022 vento: Nord NO 25.9
30 Agosto 2026 03:35 tempo osservato: Sereno Sereno 23 46 1022 vento: Nord NO 25.9
30 Agosto 2026 03:15 tempo osservato: Sereno Sereno 24 41 1022 vento: Nord NO 29.6
30 Agosto 2026 02:55 tempo osservato: Sereno Sereno 24 41 1022 vento: Nord N/NO 31.5
30 Agosto 2026 02:35 tempo osservato: Nuvoloso Nuvoloso 24 38 1022 vento: Nord NO 25.9
30 Agosto 2026 02:15 tempo osservato: Nuvoloso Nuvoloso 25 38 1022 vento: Nord NO 24
30 Agosto 2026 01:55 tempo osservato: Nuvoloso Nuvoloso 25 41 1022 vento: Nord NO 27.8
30 Agosto 2026 01:35 tempo osservato: Nuvoloso Nuvoloso 25 38 1022 vento: Nord NO 25.9
30 Agosto 2026 01:15 tempo osservato: Sereno Sereno 25 38 1022 vento: Nord NO 22.2
30 Agosto 2026 00:55 tempo osservato: Sereno Sereno 26 34 1022 vento: Nord O/NO 24
30 Agosto 2026 00:35 tempo osservato: Sereno Sereno 25 33 1021 vento: Nord NO 18.5